Theta_e
305 305 307 307 308 306 307 307 307 306 306 306 305 306 307 306 306 307 307 307 309 310 314 318 321 323 322 325 322 311 313 315 311 312 315 312 324 325 329 332 331 329 330 331 335
305 305 306 307 306 306 306 306 305 305 305 306 306 305 306 306 306 307 307 309 310 312 311 312 321 320 322 322 327 316 313 313 312 310 313 313 317 329 333 332 331 332 330 332 335
304 305 305 305 305 304 306 304 305 305 306 306 306 304 304 305 305 305 307 309 309 309 309 309 313 319 322 322 323 313 314 314 313 311 313 315 320 328 333 334 332 334 331 333 334
305 304 304 304 304 305 304 305 305 305 306 306 306 303 303 304 309 307 304 305 303 302 308 309 314 321 322 324 321 317 314 314 314 314 314 315 322 330 332 331 329 332 330 333 333
303 304 304 304 304 304 304 304 305 306 306 307 307 303 304 306 306 305 303 302 301 303 308 310 317 319 320 323 322 314 315 314 315 312 313 315 326 328 330 329 331 331 330 332 333
304 303 304 303 304 304 304 305 305 306 306 307 307 305 306 308 305 303 304 302 302 305 306 308 315 318 319 324 324 314 315 314 314 312 314 317 324 328 330 332 333 331 330 330 331
303 303 304 303 303 304 304 305 305 305 306 307 305 306 306 306 305 304 303 302 302 305 307 307 310 319 319 323 314 312 315 313 312 312 314 319 326 327 331 333 334 332 331 329 330
303 303 303 303 303 304 304 304 303 304 303 305 304 306 306 305 305 305 303 302 303 304 306 306 308 317 318 316 311 311 313 315 311 313 315 319 324 330 333 334 334 333 331 330 330
302 302 303 303 303 304 304 302 300 301 304 305 305 305 304 305 305 304 303 304 303 305 306 307 311 319 313 321 313 311 314 311 311 312 316 316 320 334 333 334 334 332 332 330 330
302 302 303 303 304 304 302 301 301 301 302 305 304 303 302 303 303 303 305 303 304 307 310 312 318 315 316 320 316 310 310 310 310 312 316 315 319 336 334 334 333 331 330 329 329
302 302 303 303 303 303 298 299 296 297 299 301 302 303 303 302 303 305 304 304 304 311 313 319 321 320 317 316 313 310 309 310 310 313 316 315 324 336 334 333 333 331 330 329 328
302 297 302 301 302 299 297 299 299 299 300 300 302 303 301 302 305 306 304 304 307 315 319 319 321 314 313 308 310 309 308 311 313 314 313 316 317 325 334 334 332 331 330 329 328
298 296 301 301 300 298 296 297 299 300 300 300 301 303 301 302 306 306 304 303 308 316 319 319 316 309 310 307 309 307 309 310 313 312 312 315 316 323 323 329 331 330 328 327 327
296 297 300 297 298 297 296 297 299 300 295 298 300 301 301 304 307 305 305 303 308 320 316 312 310 309 309 309 308 308 307 312 314 313 312 311 309 314 322 325 332 332 329 328 327
296 297 300 296 296 295 296 297 299 299 293 297 299 299 301 306 308 307 306 308 315 316 313 316 310 310 310 310 307 307 310 312 313 310 312 312 309 309 321 324 329 331 331 329 328
296 297 296 296 296 296 297 299 298 292 295 295 298 299 302 304 308 307 307 307 308 315 313 312 311 311 311 310 310 309 310 311 311 310 315 309 308 309 323 326 323 327 330 329 329
297 297 297 296 295 298 298 295 292 297 298 296 299 300 302 304 307 307 307 306 307 316 316 314 316 311 311 310 310 310 312 315 316 316 313 307 309 307 312 322 323 324 327 328 327
297 296 297 296 298 299 294 291 294 298 297 298 298 299 300 301 305 305 306 306 304 313 315 317 316 313 311 310 310 310 308 313 310 310 308 305 308 308 309 318 321 322 324 325 326
298 296 295 297 298 297 293 295 297 298 297 298 296 296 296 298 299 302 304 304 304 304 317 317 317 314 310 310 310 311 308 305 306 306 306 307 307 307 306 311 317 320 321 324 326
298 296 294 297 296 295 294 297 296 295 296 296 295 294 293 296 297 294 301 302 302 304 304 313 315 315 311 311 310 310 308 310 308 308 308 307 306 308 309 309 308 312 319 321 323
295 289 294 296 295 291 290 294 295 294 295 295 295 292 291 295 289 291 298 302 303 303 304 309 313 316 311 311 311 310 311 311 311 310 312 308 305 307 307 304 308 304 302 303 304
292 291 293 295 290 284 289 294 294 293 292 294 294 295 294 295 294 293 299 301 302 302 308 307 312 313 312 311 311 310 309 308 309 311 310 310 310 301 301 299 300 298 297 297 297
291 289 292 292 288 285 292 293 293 293 292 292 290 291 294 295 295 296 298 297 299 300 306 306 313 314 315 311 311 313 310 308 307 309 310 313 311 300 298 298 296 296 295 294 294
286 289 287 287 287 288 290 291 292 292 292 291 290 291 294 294 294 296 295 296 295 298 302 307 314 314 313 314 310 313 312 309 309 309 309 310 308 302 298 296 295 293 293 292 292
286 284 282 287 288 279 283 282 285 288 291 290 289 289 293 290 293 294 293 294 297 295 298 302 312 312 313 312 313 311 312 309 309 309 310 309 308 299 295 294 292 291 291 290 290
289 287 283 277 276 281 284 281 286 287 287 287 286 288 287 284 286 287 290 293 294 294 295 296 307 309 313 312 309 306 303 310 309 306 306 304 300 292 291 292 291 289 289 288 288
291 292 286 288 278 281 281 286 287 291 288 292 290 285 288 288 287 287 288 290 292 294 294 290 299 303 309 312 309 310 298 298 297 292 297 307 297 290 290 290 288 287 286 286 285
Wind_Speed
21 21 21 22 23 24 24 21 20 21 20 15 15 14 13 11 11 9 6 16 14 15 10 12 19 21 18 6 5 5 4 6 10 10 9 5 6 3 3 14 1 2 5 23 34
21 22 22 23 24 24 23 22 21 21 21 18 12 11 11 7 8 7 7 11 15 13 7 4 18 16 9 8 5 5 5 9 5 7 5 5 7 12 8 5 4 10 18 27 33
21 21 22 23 23 24 23 22 22 23 23 19 11 7 6 5 3 4 9 2 9 8 10 3 12 12 16 6 8 7 7 5 5 5 6 6 4 3 21 4 16 24 23 20 28
22 22 22 23 24 24 24 23 24 22 18 13 6 10 2 5 2 4 3 5 11 6 7 4 10 17 14 17 13 10 4 6 4 6 5 5 8 4 20 10 17 30 29 21 20
22 22 22 23 25 25 25 23 21 20 16 12 4 0 4 3 4 9 4 1 9 7 13 10 14 18 21 16 15 5 9 3 1 3 5 8 7 6 3 13 18 22 22 20 16
23 23 22 23 24 25 26 23 20 20 13 11 4 6 3 2 4 7 2 6 7 11 10 5 14 18 23 17 18 7 11 4 5 6 2 6 5 4 2 18 20 23 21 18 16
23 24 23 24 25 25 25 23 21 15 10 6 3 8 3 5 6 6 4 7 4 8 11 9 13 14 12 14 8 7 13 4 2 3 3 7 5 7 16 17 21 20 18 17 15
25 25 24 23 24 25 25 24 16 10 8 5 1 3 3 1 5 7 6 3 5 7 5 7 9 13 8 10 5 7 8 8 4 4 2 2 3 4 17 21 18 17 17 16 15
25 25 24 23 22 23 24 21 5 7 6 2 3 2 2 4 5 5 6 3 7 5 4 4 3 6 6 21 6 1 13 6 6 7 3 3 5 6 13 18 20 15 17 15 15
25 25 23 22 20 20 24 6 4 10 4 3 4 1 4 7 10 2 3 1 2 9 7 8 5 6 10 18 16 10 9 4 8 6 3 4 5 13 13 19 22 16 16 15 15
24 23 22 21 17 15 20 3 5 6 8 1 4 3 7 16 10 4 3 1 2 9 8 11 14 13 23 20 19 11 6 11 4 5 6 7 8 16 11 10 17 14 15 17 18
22 22 22 20 12 9 18 5 3 1 4 6 8 6 17 5 4 5 1 2 2 17 17 11 13 14 18 11 16 12 12 5 5 4 6 3 5 9 14 17 22 19 16 17 18
18 24 23 23 4 8 19 8 2 1 0 7 5 3 15 6 3 9 5 1 5 7 19 15 12 9 17 11 16 5 15 7 10 4 5 7 2 5 5 4 8 10 11 11 17
16 22 22 18 1 9 4 9 1 1 4 14 11 6 13 11 1 4 4 3 4 18 19 10 2 18 18 7 16 9 8 9 13 7 6 2 4 3 7 7 12 12 14 16 17
15 22 21 11 6 5 7 3 1 1 6 20 9 12 18 6 7 18 3 5 12 13 13 1 14 12 11 4 7 7 9 9 6 5 6 1 4 5 8 7 11 14 16 16 18
13 19 28 10 8 12 5 3 2 7 4 10 9 14 16 8 11 11 5 6 2 11 13 7 4 5 3 4 5 7 10 8 5 4 1 5 5 4 9 18 6 12 15 16 17
12 21 25 12 13 13 3 3 7 6 7 11 10 14 14 11 13 10 16 17 7 10 9 8 6 4 5 6 6 9 16 3 2 1 5 2 2 7 5 11 13 16 15 15 16
8 19 30 28 26 9 6 6 13 5 4 5 7 12 10 13 12 20 11 12 17 9 9 4 2 2 2 3 6 6 7 8 10 6 4 3 6 7 8 6 8 14 18 15 16
3 11 27 32 23 21 5 13 5 4 6 7 6 7 9 7 6 8 10 6 6 9 3 4 1 4 2 4 2 2 2 6 8 1 4 2 4 5 4 6 6 6 6 10 13
3 3 25 24 24 14 7 9 4 7 6 2 5 4 7 9 8 5 10 7 9 5 5 1 4 1 2 3 1 3 3 3 3 6 4 2 4 2 7 11 12 5 6 6 5
5 4 33 14 14 7 5 5 4 9 10 7 3 3 2 3 2 4 5 1 6 8 7 5 3 4 5 5 5 0 1 4 5 4 5 4 5 1 5 9 7 10 12 11 10
5 5 29 11 5 3 4 4 8 8 11 7 5 5 3 5 7 5 3 4 9 6 4 4 2 4 11 3 4 1 4 4 4 4 2 3 4 3 5 8 9 11 12 12 12
3 1 16 13 5 4 4 4 5 10 9 7 8 7 4 6 5 4 3 5 7 9 4 5 2 4 4 7 1 4 4 4 3 3 4 5 4 4 7 9 11 11 12 12 13
3 4 5 5 3 4 2 5 4 6 3 5 6 5 5 6 4 4 6 3 8 9 7 4 2 3 6 2 3 4 3 3 4 2 3 4 6 3 6 7 9 10 11 10 11
4 1 4 4 5 4 3 1 4 6 6 9 5 10 4 6 6 6 7 6 2 11 5 3 2 2 1 5 3 4 5 6 6 4 4 5 9 5 4 5 6 7 9 11 13
3 3 3 2 1 4 6 2 2 4 3 5 4 6 5 4 2 4 8 6 4 8 6 6 2 3 3 5 3 3 3 4 3 3 5 8 2 2 3 4 7 8 10 10 11
5 3 4 6 3 4 2 2 3 2 3 1 1 2 4 2 4 8 7 5 5 5 4 4 2 2 3 3 1 2 2 3 3 4 2 6 3 3 2 4 4 6 8 9 10
Wind_Direction
339 340 338 332 338 334 332 322 318 314 315 316 307 302 294 259 241 212 224 234 231 250 274 219 191 168 179 185 162 158 120 194 186 159 196 172 126 63 37 133 2 129 126 148 144
340 340 337 337 335 335 329 325 328 322 317 316 314 298 317 224 193 187 210 218 230 245 250 269 195 161 184 175 188 162 152 196 200 173 152 165 138 144 121 144 44 93 108 135 137
337 337 335 335 334 332 329 325 323 318 313 306 313 306 302 160 162 201 203 221 206 198 202 211 235 172 184 179 192 174 171 193 228 167 155 133 131 139 136 197 163 147 142 149 138
336 336 335 333 331 330 326 322 324 324 325 312 295 358 83 63 196 138 58 8 310 306 182 143 230 176 174 193 192 136 197 166 341 184 161 157 125 134 163 173 162 151 151 151 146
335 334 334 332 331 330 327 321 323 324 323 316 247 309 203 196 238 188 168 285 321 226 191 199 230 176 184 186 184 140 194 222 49 314 162 130 149 164 64 117 137 143 145 149 143
333 333 331 332 332 329 326 323 322 326 326 328 242 182 231 273 192 185 275 312 177 179 152 200 223 191 186 173 179 167 168 102 131 278 181 129 129 90 22 127 136 151 148 150 147
332 329 329 330 331 328 327 324 322 329 338 3 164 180 233 257 187 215 254 286 263 197 176 218 262 215 159 145 165 133 163 76 256 235 192 124 107 157 150 144 146 155 151 149 147
332 329 328 329 330 329 327 326 320 325 335 353 183 211 270 240 203 214 262 265 293 235 175 201 260 214 142 135 100 109 146 163 225 193 322 92 169 131 151 144 150 154 158 158 160
331 328 328 330 332 330 331 332 343 345 305 263 300 210 351 165 230 214 229 219 259 238 123 7 248 190 125 147 122 143 171 166 146 198 124 83 130 164 160 147 154 158 162 164 168
332 329 330 332 334 338 338 352 17 42 48 275 298 25 357 305 314 173 249 262 234 153 122 203 185 154 145 157 168 172 152 135 138 192 52 97 122 161 168 156 161 165 166 169 178
336 333 335 337 341 349 353 44 18 355 30 350 308 162 275 295 318 320 338 291 269 159 160 157 161 163 156 170 169 139 105 155 101 184 113 135 131 168 165 155 158 165 173 178 186
344 351 343 343 350 33 42 67 74 176 334 309 279 265 326 291 283 334 53 179 127 148 152 130 164 162 152 127 139 133 126 108 63 148 95 139 119 166 168 176 171 174 181 179 178
358 3 347 347 83 38 58 28 70 302 8 332 303 291 324 311 288 333 28 92 82 140 144 136 151 158 144 121 138 139 154 152 143 112 53 108 3 144 196 126 177 184 171 179 184
360 3 355 354 91 9 62 3 76 282 71 352 345 11 330 321 268 10 22 156 163 164 148 96 92 143 136 102 148 144 163 122 135 128 176 115 229 242 189 177 178 174 177 188 188
12 12 358 12 326 77 326 13 144 101 51 321 323 304 325 350 328 8 26 23 88 128 130 162 124 127 105 130 130 182 143 131 132 101 107 192 95 252 167 207 189 185 191 193 191
11 6 8 1 350 0 351 106 89 42 11 327 328 336 345 3 5 6 66 37 207 75 81 56 120 79 118 90 66 124 96 60 64 87 128 221 140 260 192 197 171 193 197 192 191
20 19 17 13 332 357 88 78 54 51 329 324 332 333 344 352 23 28 49 47 47 102 104 31 18 26 88 75 31 117 140 106 62 27 195 288 151 234 212 193 182 187 197 194 192
11 18 24 13 8 31 69 53 63 351 328 313 320 325 17 359 13 28 41 29 13 66 96 111 95 41 297 137 161 128 147 156 165 173 195 80 217 240 215 208 194 186 194 185 188
14 25 17 10 15 31 78 53 46 348 311 315 326 24 343 351 30 31 45 32 42 14 64 112 279 331 27 41 98 219 113 162 101 6 94 212 272 325 23 201 225 200 152 193 191
41 23 14 358 26 41 53 92 81 20 316 29 63 34 12 335 24 37 25 348 348 22 328 9 97 293 257 49 32 110 189 100 31 140 178 279 251 215 348 337 321 236 219 192 159
43 54 352 10 38 43 69 53 28 2 17 43 13 41 333 356 78 48 358 151 0 323 329 359 87 258 120 203 147 177 186 63 116 127 153 159 244 43 332 345 24 19 33 34 46
53 49 354 25 59 31 42 11 6 341 4 17 36 16 24 346 18 66 60 3 357 323 24 2 85 109 210 65 8 290 184 129 118 205 165 145 243 50 50 23 26 27 27 30 36
72 342 13 37 72 7 28 41 49 10 1 13 7 0 351 5 70 63 47 335 10 19 21 334 346 99 66 315 301 230 205 159 139 85 191 138 236 87 52 37 23 34 29 24 28
75 30 352 43 36 92 62 14 20 356 34 10 15 356 350 23 22 38 358 334 336 2 347 303 17 53 184 227 111 189 162 145 140 120 161 204 156 155 40 38 15 20 28 27 28
32 243 191 345 4 51 69 4 356 11 4 6 31 22 340 9 353 19 1 344 9 355 358 38 54 351 351 296 280 225 167 183 195 183 165 196 154 144 86 56 36 22 26 26 22
92 89 5 146 328 50 7 337 354 316 55 341 47 330 41 80 141 310 359 7 355 326 14 345 94 356 305 343 308 131 343 178 160 75 77 104 96 77 72 67 54 31 25 21 16
40 89 105 320 13 77 265 260 275 345 299 212 303 68 16 114 227 235 226 258 260 316 327 36 27 3 229 334 16 348 292 335 80 51 34 170 121 133 100 75 55 35 27 17 2